This is the latest recevied weather packets stored in our database for station/object WE0DX-1. If no packets are shown the sender has not sent any weather packets the latest 1 day(s).
| Time | Temp. | Humidity | Pressure | Rain* | Wind** | Luminosity | Snow |
|---|---|---|---|---|---|---|---|
| 1836274651 | 21.67° C | 67% | 1016.1 hPa | 0 mm | 0 m/s | 0 W/m² | - |
| 1836274504 | 21.67° C | 68% | 1015.9 hPa | 0 mm | 0 m/s | 0 W/m² | - |
| 1836274348 | 21.67° C | 67% | 1016 hPa | 0 mm | 0 m/s | 0 W/m² | - |
| 1836274202 | 21.67° C | 68% | 1016 hPa | 0 mm | 0 m/s | 0 W/m² | - |
| 1836274047 | 21.67° C | 67% | 1016.1 hPa | 0 mm | 0 m/s | 0 W/m² | - |
| 1778048848 | 7.22° C | 91% | 1014.4 hPa | 0 mm | 0 m/s | 0 W/m² | - |
| 1778048545 | 7.22° C | 87% | 1014.5 hPa | 0 mm | 0 m/s | 0 W/m² | - |
| 1778048240 | 7.78° C | 85% | 1014.8 hPa | 0 mm | 0 m/s | 0 W/m² | - |
| 1778047938 | 7.22° C | 84% | 1014.9 hPa | 0 mm | 0 m/s | 0 W/m² | - |
| 1778047637 | 7.22° C | 87% | 1014.9 hPa | 0 mm | 0 m/s | 0 W/m² | - |
| 1778047333 | 7.22° C | 85% | 1014.8 hPa | 0 mm | 0 m/s | 0 W/m² | - |
| 1778047030 | 7.22° C | 84% | 1014.7 hPa | 0 mm | 0 m/s | 0 W/m² | - |
| 1778046727 | 7.22° C | 88% | 1014.9 hPa | 0 mm | 0 m/s | 0 W/m² | - |
| 1778046424 | 7.22° C | 87% | 1014.8 hPa | 0 mm | 0 m/s | 0 W/m² | - |
| 1778046120 | 7.78° C | 85% | 1015 hPa | 0 mm | 0 m/s | 0 W/m² | - |
| 1778045818 | 7.78° C | 83% | 1015 hPa | 0 mm | 0 m/s | 0 W/m² | - |
| 1778045522 | 7.78° C | 81% | 1015 hPa | 1.78 mm | 0 m/s | 0 W/m² | - |
| 1778045214 | 7.78° C | 80% | 1015.1 hPa | 1.78 mm | 0.89 m/s, 338° | 0 W/m² | - |
| 1778044911 | 7.78° C | 80% | 1015 hPa | 0 mm | 0.89 m/s, 356° | 0 W/m² | - |
| 1778044609 | 8.33° C | 78% | 1015.1 hPa | 1.27 mm | 1.34 m/s, 14° | 0 W/m² | - |
| 1778044305 | 8.89° C | 74% | 1014.9 hPa | 1.27 mm | 0.89 m/s, 341° | 0 W/m² | - |
| 1778044003 | 8.89° C | 72% | 1014.9 hPa | 0 mm | 0.45 m/s, 0° | 0 W/m² | - |
| 1778043700 | 9.44° C | 67% | 1014.8 hPa | 0 mm | 1.79 m/s, 343° | 0 W/m² | - |
| 1778043397 | 9.44° C | 67% | 1015 hPa | 0 mm | 3.13 m/s, 317° | 0 W/m² | - |
| 1778043093 | 10° C | 63% | 1014.7 hPa | 0 mm | 1.34 m/s, 327° | 0 W/m² | - |
* Rain latest hour (hover to see other rain measurements)
** Current wind speed in m/s (hover to see current wind gust speed)